Theta_e
306 308 312 314 313 311 311 311 311 315 315 315 315 313 313 312 310 310 310 308 304 310 316 311 310 311 309 309 309 308 309 309 309 308 308 309 309 310 312 313 314 314 315 316 315 315 315 315 315 315 314 314 313 313 312 310 309 309 308 308 307 307 307 307 307 309 308 308 308 308 308 308 308 309 308 308 308 307 307 307 307 307 307 308 308 308
306 308 315 315 313 311 311 312 313 313 313 313 312 312 313 311 311 310 308 311 309 310 316 314 313 314 311 311 311 310 311 311 310 309 308 309 309 310 312 313 314 315 315 316 316 315 315 316 315 315 314 314 314 313 312 311 310 309 308 308 307 307 307 307 307 308 309 309 309 309 309 309 308 308 308 308 308 307 307 307 307 307 308 308 308 308
309 312 316 309 305 308 311 311 313 313 313 316 313 313 315 313 314 312 308 313 313 311 317 317 313 313 311 311 311 310 310 310 310 310 310 310 309 311 313 313 314 315 317 317 316 316 316 316 316 315 314 314 314 314 313 312 311 309 309 308 307 308 307 307 307 308 309 309 309 308 308 308 308 308 308 308 308 307 307 307 307 307 307 308 308 308
313 317 312 301 301 311 314 311 313 313 313 316 314 313 317 314 313 313 311 313 314 310 314 317 313 313 312 312 316 311 306 308 310 310 310 310 310 312 312 313 314 315 316 317 317 316 316 316 316 315 314 314 314 314 313 312 311 310 309 308 308 308 308 307 306 307 309 309 308 308 308 307 307 307 307 307 307 307 307 307 307 307 307 308 308 308
315 312 303 301 306 312 314 311 312 313 315 319 316 314 317 313 310 313 312 313 315 312 311 314 316 319 321 321 327 319 307 307 308 308 310 311 312 313 313 314 314 315 315 316 317 316 316 316 316 315 315 314 314 314 314 313 312 311 310 309 308 308 308 307 306 307 308 308 308 307 307 307 307 307 307 307 308 308 307 307 307 307 307 308 308 308
315 306 301 309 312 311 313 314 314 313 316 320 316 313 312 310 310 314 316 315 321 320 312 312 317 326 329 324 325 321 314 314 310 308 311 312 314 314 314 315 314 315 315 315 317 316 316 315 315 315 315 314 314 314 314 313 312 311 310 309 308 308 308 307 306 306 308 309 308 308 308 307 307 308 308 308 309 308 308 308 307 307 307 307 308 308
311 304 303 312 314 312 312 314 315 313 314 315 312 310 310 309 311 315 317 315 320 321 311 310 316 320 321 317 316 317 319 320 314 312 312 310 314 315 313 315 315 315 316 315 316 316 316 315 315 315 315 315 314 314 314 313 312 311 310 309 308 309 308 307 307 306 308 309 309 308 308 308 308 308 309 309 309 308 308 307 307 307 307 307 308 307
309 308 307 311 313 313 313 314 314 312 315 315 310 309 312 312 313 314 315 314 316 317 313 312 315 316 317 316 318 318 319 320 316 319 320 312 313 315 314 315 315 315 315 315 316 316 315 315 314 315 314 314 314 313 313 312 312 311 310 310 309 309 308 307 307 306 308 309 309 309 308 308 308 308 308 308 308 308 307 307 306 306 307 307 308 308
307 314 314 314 315 313 316 315 309 307 312 313 307 308 311 311 313 314 315 317 315 314 317 317 312 314 321 321 322 318 315 320 320 326 330 317 313 315 315 315 315 314 315 314 315 315 315 314 314 314 314 314 313 313 312 312 312 311 310 310 308 309 308 307 307 306 308 309 309 309 308 308 308 308 308 307 307 307 307 307 306 306 307 307 307 308
307 310 310 313 316 315 315 309 305 308 310 307 304 308 312 311 313 315 315 317 316 315 317 318 311 312 320 325 325 317 314 323 325 328 330 316 311 314 314 315 315 314 314 314 315 315 315 314 314 314 314 314 313 313 312 311 311 310 310 309 309 309 308 307 307 307 308 309 309 309 308 308 308 307 307 307 307 307 307 307 306 306 307 307 307 308
306 304 304 308 311 310 308 303 303 308 307 304 307 313 315 315 314 315 317 315 316 322 320 315 311 311 314 323 327 318 315 320 322 325 326 314 309 312 314 314 313 313 313 313 314 314 314 314 313 314 314 314 313 313 312 311 311 310 310 309 309 308 308 308 307 307 308 308 308 308 308 308 308 307 307 307 307 307 307 307 307 307 307 307 307 308
306 307 307 306 304 303 306 307 303 303 304 306 314 317 315 318 317 317 321 315 316 327 321 312 311 311 313 320 324 320 316 316 317 318 319 315 311 312 313 314 313 313 314 313 314 314 314 314 313 313 313 314 314 313 313 312 311 310 310 309 309 308 308 308 307 307 307 308 308 308 308 308 307 307 307 307 307 308 308 307 307 307 307 307 307 308
314 311 308 305 303 303 310 314 306 304 308 312 317 319 317 320 319 319 323 319 319 323 314 309 311 311 314 316 314 315 314 313 313 312 312 312 310 311 313 314 314 314 314 313 314 314 314 314 313 313 313 313 314 313 313 312 311 311 310 309 309 309 308 308 308 307 307 307 307 307 308 308 307 307 307 307 307 308 307 307 307 307 307 307 307 308
320 313 307 307 307 303 308 316 313 312 312 312 316 320 321 320 317 321 324 316 315 317 310 307 310 312 316 316 314 315 313 311 310 309 310 310 309 311 313 313 313 314 314 313 313 313 314 314 313 313 313 313 314 313 313 313 312 312 311 310 310 309 309 308 308 308 307 307 307 307 307 307 307 307 307 307 307 308 308 307 307 307 307 307 307 308
319 316 310 309 308 304 306 312 315 316 313 312 315 316 318 321 318 320 324 317 314 318 314 308 312 320 321 317 316 314 309 308 307 308 309 309 309 310 311 313 313 314 314 313 313 313 313 314 313 313 313 313 313 313 313 313 313 313 312 311 311 310 310 309 308 308 308 307 307 307 307 307 307 307 307 308 308 308 308 307 307 307 307 307 307 307
313 314 309 304 304 304 307 306 305 312 314 311 311 312 316 320 319 315 314 314 313 315 317 312 315 322 318 314 315 312 311 310 306 304 305 307 310 309 310 313 313 314 314 312 313 314 313 313 313 312 313 313 313 313 313 313 313 313 313 312 312 311 311 310 309 309 309 308 307 306 306 307 307 307 308 308 308 308 307 307 307 307 307 307 307 307
312 315 308 303 304 302 304 304 302 308 313 310 310 315 314 311 316 318 310 307 307 312 318 315 315 319 314 313 317 317 318 317 313 311 305 305 309 309 311 313 313 314 314 313 313 313 313 313 312 312 313 312 312 312 312 312 312 313 313 313 313 312 311 311 310 309 309 308 308 307 307 307 307 307 308 308 308 308 307 307 307 307 307 307 307 306
315 315 309 305 308 303 299 302 302 302 307 312 313 314 310 305 312 316 312 313 313 315 318 314 315 318 314 315 320 319 318 316 317 317 309 306 307 308 311 313 313 313 313 313 313 313 313 313 312 312 312 312 312 312 312 312 312 312 312 312 313 312 312 312 311 310 309 309 308 308 307 307 307 307 308 308 308 308 307 307 307 307 307 307 307 306
312 315 313 304 307 305 299 303 308 303 302 307 308 307 307 311 317 313 312 319 316 314 318 316 312 313 313 316 319 316 314 316 316 315 315 314 309 307 311 313 313 313 312 313 313 312 313 313 312 313 312 312 312 312 312 311 311 312 312 312 312 312 312 312 311 311 310 309 309 308 307 307 307 307 308 308 308 307 307 307 307 307 307 307 307 307
309 312 316 306 303 306 304 307 314 310 303 303 305 305 306 312 318 314 312 317 316 315 318 318 317 316 315 317 320 316 314 316 315 314 318 317 309 307 311 312 313 313 312 313 313 313 313 312 313 312 311 312 312 312 312 311 312 312 311 311 311 312 312 312 312 311 311 310 310 309 308 307 307 307 307 308 308 308 307 307 307 307 307 307 307 307
309 309 316 309 302 306 309 310 312 314 311 308 310 311 308 308 311 312 310 311 317 321 319 316 318 318 314 315 318 316 314 314 314 315 317 313 309 310 311 312 313 313 313 313 312 313 313 312 313 312 312 312 311 312 312 311 312 312 311 311 311 311 311 311 312 311 311 311 310 310 309 307 307 307 307 308 308 308 307 308 308 307 307 307 307 307
310 311 319 315 309 313 316 309 304 307 310 310 312 314 311 310 312 314 312 309 311 315 317 317 316 315 314 315 316 315 314 313 312 313 314 309 307 311 312 312 313 313 313 313 312 313 312 312 312 312 312 312 311 311 311 311 312 311 311 311 310 311 311 311 311 311 311 311 310 310 309 308 308 307 307 307 308 308 308 308 308 308 308 307 307 307
309 312 316 317 315 314 309 301 298 301 304 306 309 311 310 311 314 318 320 315 310 308 310 313 315 316 316 314 317 318 315 310 306 307 309 306 306 310 311 312 313 312 312 313 312 312 313 312 313 312 312 312 310 310 310 311 312 311 312 311 310 311 310 310 311 310 311 311 310 310 310 309 308 307 307 307 307 308 308 308 308 307 307 307 307 307
308 312 313 315 320 314 304 299 297 298 302 306 308 307 308 311 313 316 318 316 314 312 311 311 313 316 315 313 317 318 311 306 304 304 304 304 306 309 309 311 312 311 312 313 312 312 312 312 312 312 312 311 310 310 310 310 311 311 312 311 311 311 310 310 310 310 310 310 310 310 310 310 309 308 308 307 307 307 307 308 308 307 307 307 307 307
310 316 314 314 320 319 313 309 305 304 304 308 311 307 306 309 311 310 310 308 311 315 314 314 314 313 313 314 315 314 312 311 309 305 304 304 306 308 309 310 310 310 311 311 310 311 310 310 311 310 310 310 309 309 309 310 311 311 312 312 311 311 310 310 310 310 310 310 310 310 310 310 310 309 309 308 308 308 307 307 307 307 307 307 306 307
311 317 315 314 316 315 316 318 318 315 309 308 310 307 306 308 309 310 312 311 312 313 312 313 314 311 311 314 312 311 312 312 308 306 306 306 307 308 309 309 309 309 309 309 309 310 309 309 309 309 309 309 308 308 309 309 310 311 312 312 311 311 311 310 310 310 309 309 310 310 310 310 310 310 309 309 309 308 308 307 307 307 307 306 306 306
312 313 312 315 316 313 313 315 314 312 312 313 313 309 307 307 307 310 314 313 314 313 311 311 312 310 311 312 310 310 310 309 309 308 307 306 307 308 308 308 308 308 308 308 308 308 308 308 308 308 308 308 308 308 308 308 309 310 311 311 312 311 311 310 310 310 309 309 310 310 310 310 309 310 309 309 309 309 308 308 308 307 307 307 307 306
313 312 310 312 312 311 310 311 310 310 312 315 316 313 310 306 306 309 311 312 314 314 311 311 310 310 310 309 309 310 309 309 309 308 307 307 307 307 307 307 307 307 308 308 308 308 308 308 307 308 307 307 308 308 308 308 308 309 309 310 311 311 311 311 310 310 309 309 309 310 310 309 309 309 309 309 309 309 309 309 308 308 308 308 307 307
314 315 312 310 309 310 309 308 310 310 309 311 313 314 312 307 307 308 308 309 312 312 310 311 311 310 309 308 309 309 308 308 308 308 307 307 307 307 306 307 307 307 308 308 308 308 308 307 307 307 307 307 308 308 308 308 308 308 309 309 309 310 311 311 310 310 309 308 308 308 309 309 309 309 309 309 309 309 309 308 308 308 308 308 307 307
309 316 314 309 309 311 309 307 308 307 307 308 308 309 311 309 307 307 307 308 309 309 310 310 310 310 308 308 309 308 308 308 307 307 307 307 307 307 306 307 307 307 308 307 308 307 307 307 307 307 307 307 307 307 308 308 308 308 308 309 309 309 310 311 310 310 309 308 307 307 307 308 308 309 309 309 309 309 308 308 308 308 308 307 307 307
305 313 312 308 310 313 310 306 306 306 306 307 307 308 308 307 306 305 306 307 307 308 308 308 308 309 308 308 308 307 307 307 307 307 306 306 307 306 306 306 306 307 307 307 307 307 307 307 307 307 307 307 307 307 307 308 308 308 308 308 309 309 309 310 310 310 309 307 306 306 306 307 307 308 308 308 308 308 308 308 308 308 308 307 307 307
304 308 309 307 309 314 311 305 304 305 303 303 306 309 307 305 306 306 305 306 306 307 308 307 307 307 307 307 307 306 307 307 306 305 304 305 306 305 305 306 306 306 306 307 307 307 307 307 307 307 307 307 307 307 307 307 308 308 308 308 309 309 310 310 310 309 308 306 306 306 306 306 306 306 307 307 307 307 307 307 307 307 307 307 307 307
305 309 312 308 308 313 311 304 303 304 302 303 306 307 306 305 306 306 305 305 306 306 307 307 307 307 307 308 307 307 308 308 306 304 303 304 305 305 305 305 305 306 306 307 307 307 307 307 307 307 307 307 307 307 307 307 307 307 308 308 309 309 310 310 309 308 307 306 306 306 306 306 306 306 306 306 306 306 306 306 306 306 306 305 305 305
303 308 310 306 307 315 312 306 304 304 303 306 307 306 306 306 306 306 306 305 306 306 306 307 307 307 307 307 307 307 306 305 305 304 304 305 305 305 305 305 306 306 306 307 307 307 307 307 307 307 307 307 307 306 307 306 306 307 307 308 309 309 309 309 308 307 306 306 306 306 306 306 305 305 305 305 305 305 305 305 306 305 305 305 305 305
304 305 305 303 306 311 309 306 306 305 303 305 307 306 305 304 304 305 305 305 305 304 305 306 305 306 306 306 305 305 304 304 304 304 305 305 305 305 305 305 306 307 307 307 307 307 307 307 306 306 306 306 306 306 306 306 306 307 307 308 309 309 309 308 307 307 306 306 306 305 305 305 305 304 305 305 305 305 305 305 306 306 306 305 305 305
306 304 304 305 305 306 307 307 306 305 303 305 307 304 301 303 304 303 304 305 304 303 304 304 304 304 305 304 304 304 304 303 303 304 305 306 306 305 305 306 307 307 307 307 307 307 307 306 306 306 306 306 306 305 306 306 306 306 307 308 309 309 308 308 307 306 306 305 305 305 304 304 304 304 305 305 305 305 306 306 306 306 306 305 305 305
304 306 305 306 305 305 308 308 306 304 303 305 307 304 303 307 310 307 306 307 307 306 305 303 304 304 304 303 303 303 303 302 303 306 307 307 307 306 306 307 307 307 307 307 307 306 307 306 306 306 306 306 305 305 306 305 306 306 307 308 308 308 308 308 307 306 306 306 305 304 304 304 304 304 304 304 305 305 305 306 305 305 305 305 305 305
301 304 305 306 305 304 305 306 305 304 304 305 308 307 304 305 307 308 306 306 309 310 305 303 305 305 304 304 302 301 302 304 306 309 308 308 308 306 306 307 307 307 307 306 306 306 306 306 306 306 306 306 305 305 305 305 306 306 306 307 308 308 308 307 307 306 306 305 305 304 304 304 304 304 304 304 304 305 305 305 305 304 304 305 305 305
299 301 302 305 306 303 303 305 305 304 304 307 310 309 303 300 304 308 306 305 309 309 304 304 307 306 305 304 303 301 303 306 307 308 308 308 308 307 307 306 306 307 306 306 306 306 305 306 305 306 306 306 306 305 305 305 305 305 306 307 308 308 308 307 306 305 305 305 305 304 304 304 303 303 303 304 304 304 304 304 304 304 304 304 304 304
299 301 301 302 304 304 303 305 304 303 304 306 308 306 300 300 305 308 306 308 311 307 303 304 306 306 303 301 301 304 305 306 307 307 307 308 307 306 307 306 305 306 306 306 306 305 305 305 305 305 306 306 306 305 305 305 305 305 306 306 307 308 307 307 306 305 305 305 304 304 304 303 303 303 303 303 304 304 304 304 304 304 304 304 304 303
298 300 301 301 303 303 302 303 304 304 304 306 305 301 298 301 306 307 307 309 306 303 304 305 303 304 304 301 301 304 305 306 307 306 306 306 306 306 306 305 305 305 305 305 305 305 305 305 305 306 306 306 306 305 305 305 305 305 305 306 306 307 306 306 305 305 305 305 304 304 303 303 302 302 302 303 303 304 304 304 304 304 304 303 303 303
299 300 302 301 302 303 303 304 304 303 305 305 303 300 300 304 308 306 306 306 304 304 307 307 305 306 306 303 303 304 305 306 307 306 306 306 305 305 305 304 305 305 304 305 305 304 305 305 305 305 305 305 305 305 305 305 305 305 305 305 305 306 305 305 305 304 304 304 303 303 302 302 302 302 302 302 303 303 303 303 303 303 302 302 302 302
302 303 304 300 302 305 304 303 303 305 305 304 302 301 302 306 308 306 304 305 306 306 308 307 307 308 307 305 306 306 306 307 307 306 306 306 305 305 305 304 305 304 304 305 304 304 305 304 304 305 305 305 305 305 305 305 305 305 305 305 305 305 305 305 304 304 303 302 302 302 301 301 301 301 301 302 302 302 302 302 301 301 301 301 301 301
302 305 308 304 302 306 306 303 305 307 306 303 303 304 304 304 306 306 306 305 306 306 307 307 307 308 307 307 307 307 306 307 306 306 306 306 305 305 305 304 304 304 304 304 304 304 304 303 304 304 304 304 304 304 304 304 304 304 304 304 304 304 303 303 302 302 301 301 301 301 300 301 301 300 301 301 300 301 300 300 300 299 299 299 299 299
302 304 309 307 303 305 307 305 304 306 304 302 303 305 305 305 305 306 306 305 305 306 306 306 306 307 307 307 306 306 306 306 306 306 306 305 305 305 304 304 304 304 304 303 303 303 303 303 303 303 303 303 303 303 303 303 302 302 302 302 302 301 301 301 300 300 300 300 300 300 300 300 300 300 300 299 299 299 299 298 298 298 298 298 298 297
301 301 303 305 304 303 303 302 302 302 301 301 303 305 305 305 306 305 304 305 305 306 306 305 305 305 306 305 305 305 305 305 305 305 305 304 304 304 303 304 303 303 303 303 303 302 302 302 302 302 302 302 302 302 302 301 301 301 301 300 300 300 300 300 300 300 300 299 299 299 299 299 298 298 298 298 298 298 297 297 297 297 297 297 296 296
302 300 300 303 304 303 303 303 303 302 301 301 302 303 304 304 305 304 304 304 305 305 304 304 304 304 304 304 304 304 304 304 304 304 304 304 303 303 303 302 302 302 302 302 302 302 301 301 301 301 301 301 301 301 301 300 300 300 300 299 299 299 299 299 299 299 298 298 298 298 297 297 297 297 297 297 297 297 296 296 296 295 295 295 294 294
302 300 300 302 302 302 303 304 302 300 301 301 301 302 302 303 304 304 304 305 304 304 304 304 304 304 304 304 304 303 304 304 303 303 303 303 302 302 302 301 301 301 301 300 300 300 300 300 300 300 300 299 299 299 299 299 299 298 298 298 298 297 297 297 297 297 296 296 296 296 296 296 296 296 296 296 296 296 295 295 294 294 293 293 292 292
300 300 302 303 302 301 302 302 300 300 301 301 301 301 301 302 303 303 304 304 304 303 304 304 304 304 304 304 304 303 303 303 303 302 302 301 301 301 301 300 300 300 299 299 298 298 298 298 298 298 298 297 297 297 297 297 297 296 296 296 296 295 295 295 295 295 295 295 295 295 295 295 295 295 295 294 294 294 294 293 293 292 291 291 291 290
300 301 302 302 302 302 302 302 302 302 302 302 301 302 302 302 302 302 302 303 303 303 303 303 303 303 302 302 302 302 301 302 301 300 300 300 300 299 299 299 298 298 297 297 297 296 296 296 296 296 296 295 295 295 295 295 294 294 294 294 294 294 294 294 294 293 293 294 294 294 294 294 293 293 293 292 292 292 292 291 291 291 290 289 289 288
300 301 301 301 301 302 302 302 301 301 302 302 301 301 302 302 301 301 300 300 301 301 301 301 301 301 301 300 300 300 300 300 300 299 299 298 298 298 297 297 296 296 295 295 295 295 294 294 294 293 293 293 293 292 293 292 292 292 292 292 292 292 292 292 292 292 292 292 292 292 291 291 291 291 290 290 290 289 289 289 288 288 288 287 286 286
Wind_Speed
2 2 3 5 6 5 6 6 6 5 5 4 3 1 3 5 6 6 5 6 1 2 7 5 7 13 18 15 13 24 25 18 23 25 24 30 32 33 34 32 30 26 21 16 14 14 14 16 17 19 24 28 29 28 27 27 27 27 28 29 29 27 26 27 29 28 27 26 26 25 24 23 22 21 22 21 20 20 19 19 18 18 17 16 15 14
2 4 6 6 7 4 3 4 6 4 4 3 1 2 4 4 6 7 3 5 2 1 5 2 5 14 18 16 16 19 17 14 19 17 21 27 27 28 29 28 27 22 18 15 12 11 12 14 16 18 22 26 30 30 28 26 26 27 28 29 28 27 27 29 29 28 27 26 25 24 22 21 20 21 21 20 20 19 19 19 18 18 18 17 16 15
1 5 7 4 3 4 4 4 5 4 4 3 2 1 4 3 5 7 4 5 2 1 5 5 7 15 19 17 17 17 12 16 23 22 24 26 25 27 27 24 22 18 16 13 10 9 10 12 14 17 20 23 27 28 26 25 25 27 29 29 28 27 28 29 29 29 27 26 25 24 22 20 19 20 20 20 20 19 19 20 19 20 19 19 18 16
0 5 5 2 4 5 4 3 5 4 2 2 3 2 4 3 2 4 4 5 3 1 4 6 6 12 14 12 13 14 10 14 21 22 23 23 24 27 24 21 20 17 16 13 9 8 9 11 11 14 17 20 23 25 25 25 25 27 28 29 28 28 28 29 29 29 27 26 26 26 24 22 21 20 20 20 21 21 21 21 21 21 20 20 19 18
4 3 2 5 3 3 4 1 4 4 2 2 4 5 4 3 3 5 5 6 4 2 2 5 6 7 7 7 8 8 5 8 11 12 17 18 17 18 15 13 13 14 15 14 11 8 9 11 11 12 14 17 21 24 25 24 24 25 26 28 28 28 28 29 29 29 28 28 28 28 27 25 24 23 23 23 23 23 23 23 22 21 21 21 20 19
5 2 4 5 3 3 5 2 3 5 2 5 4 6 5 3 4 5 6 6 5 4 3 5 5 6 6 6 9 8 6 9 7 5 14 18 11 6 6 6 8 10 13 14 12 9 10 11 11 11 13 16 19 21 22 22 22 22 24 26 28 27 27 28 29 30 29 29 29 30 29 27 26 26 26 25 24 23 22 22 21 21 21 21 21 20
1 1 2 4 4 4 4 2 5 6 3 3 3 3 4 2 0 3 5 4 2 4 4 4 2 6 6 7 11 9 9 13 11 6 12 15 8 2 6 9 9 11 13 13 11 9 10 10 10 10 10 13 15 17 19 21 22 22 23 25 26 26 26 27 29 30 30 30 30 30 29 27 26 26 24 22 21 21 20 20 21 22 22 22 22 21
2 3 2 3 4 4 2 2 4 6 6 3 4 3 4 4 2 0 4 3 1 4 5 3 4 3 6 7 10 6 8 12 13 10 9 9 8 2 9 11 9 12 13 13 11 9 9 10 9 8 7 9 12 14 18 20 21 21 22 23 25 25 26 26 29 30 31 31 30 29 28 27 27 25 23 21 21 21 20 21 21 22 23 22 22 22
2 3 2 4 5 2 3 4 3 5 4 3 4 4 4 4 3 3 5 2 1 3 5 3 2 1 6 7 6 4 6 10 11 10 8 7 8 5 12 14 10 12 14 14 12 10 9 9 8 7 7 8 10 12 15 18 20 21 22 23 25 25 25 26 28 30 31 31 30 29 28 28 27 25 23 23 23 22 22 21 21 22 23 23 23 23
1 3 4 6 4 3 4 3 3 4 2 3 4 3 3 4 4 4 5 3 3 3 3 3 2 1 5 7 4 0 2 7 8 7 7 10 12 13 19 18 13 15 17 14 13 11 10 9 7 7 8 8 9 11 13 16 20 22 23 24 25 25 26 26 28 30 31 31 30 29 29 28 27 26 25 25 25 24 23 23 22 22 23 24 24 23
0 0 1 2 3 4 4 1 0 3 3 4 4 3 4 4 4 3 3 4 4 2 5 4 1 1 3 6 5 3 3 4 3 6 8 11 16 20 23 21 20 22 20 14 12 10 10 9 7 6 7 9 10 12 14 16 19 22 23 24 25 25 26 27 27 29 30 31 31 30 29 28 27 27 26 26 25 24 24 24 24 23 23 24 24 24
1 1 2 2 3 5 6 3 3 2 3 4 3 3 3 4 4 4 4 4 3 4 5 4 2 2 3 6 5 4 5 4 2 6 11 12 17 25 29 29 28 26 18 12 11 10 9 8 6 4 5 9 11 13 14 15 17 20 22 23 24 26 27 27 27 29 30 31 32 31 30 29 28 28 28 27 26 25 24 24 24 24 25 25 25 26
2 3 1 1 2 3 4 3 3 4 4 5 4 4 4 3 4 3 4 1 2 5 4 3 2 2 6 9 9 11 12 9 7 9 12 12 17 27 32 31 28 22 15 11 9 8 7 7 5 3 4 6 9 12 13 14 16 18 20 22 23 24 25 26 27 28 30 31 32 32 31 30 29 29 29 28 27 25 25 24 25 26 26 26 26 27
3 2 2 2 1 1 2 4 1 1 2 3 4 4 3 2 2 2 4 2 3 3 2 3 2 2 6 8 9 11 10 10 10 15 19 19 22 28 29 27 23 17 10 8 8 6 5 4 4 2 2 3 5 8 11 14 16 17 19 21 22 23 24 26 27 28 29 31 32 32 32 30 30 30 30 29 28 26 26 25 26 26 26 26 26 26
1 3 1 1 1 1 1 3 4 4 4 3 4 5 3 4 4 3 3 3 4 3 3 3 1 3 4 5 7 7 8 12 14 17 21 21 21 22 21 20 18 13 8 7 7 5 4 4 3 1 1 1 2 5 8 12 16 18 20 21 23 23 24 26 27 28 30 30 31 32 32 32 31 31 30 30 29 27 27 27 27 27 26 26 25 24
2 4 1 1 3 0 1 2 3 4 3 1 2 5 2 4 4 2 3 4 1 3 3 2 3 5 5 9 13 9 8 10 9 9 11 12 12 13 15 16 12 9 7 7 7 6 5 5 4 2 1 0 1 3 6 9 13 16 19 21 23 23 25 26 27 29 29 29 30 32 32 33 32 32 32 31 30 29 28 27 28 28 27 26 24 23
1 4 2 2 2 1 1 2 1 1 2 2 2 2 4 3 5 3 1 1 3 1 4 1 3 5 4 9 11 7 8 9 8 6 6 12 15 13 14 14 10 7 6 7 9 8 8 7 6 4 2 1 2 3 5 7 10 13 16 19 22 23 26 27 28 29 30 30 31 31 33 34 34 34 33 31 30 29 28 28 28 28 28 27 25 24
3 3 3 1 0 1 1 0 2 2 2 3 2 4 3 2 4 4 1 3 3 2 4 1 3 5 3 5 7 8 10 11 10 8 8 13 16 15 16 15 13 10 7 8 9 9 10 11 9 7 6 5 5 5 6 7 9 12 15 18 20 22 25 27 28 29 30 31 31 32 33 34 35 34 33 31 30 30 30 30 29 29 30 29 27 26
2 2 4 1 1 2 3 1 1 3 2 3 2 2 2 2 1 2 1 1 1 2 4 3 4 3 4 5 6 9 10 11 11 9 8 10 11 14 18 16 14 11 8 7 8 8 10 12 12 11 10 9 9 8 8 9 11 12 14 17 20 21 23 24 26 28 29 31 32 32 33 34 35 34 33 32 32 32 32 30 30 30 30 29 28 27
2 0 4 2 1 1 2 1 3 1 2 2 1 2 1 2 3 2 2 3 2 2 3 4 4 3 7 7 6 10 12 10 10 9 8 8 11 16 18 15 14 13 9 7 7 8 9 10 11 12 11 11 12 13 14 14 15 15 15 16 18 20 22 23 25 27 29 31 32 32 33 34 34 34 33 33 33 34 33 31 30 30 30 29 30 29
3 0 3 3 3 2 2 3 5 6 4 2 0 1 1 1 2 0 1 2 3 2 2 2 4 7 7 5 8 13 13 10 9 8 8 10 16 21 19 17 18 16 13 11 10 10 9 7 8 9 12 16 17 18 19 20 20 19 17 16 16 18 20 23 25 26 28 29 30 32 34 34 34 34 34 34 35 35 34 32 31 30 30 31 31 31
2 2 3 1 2 3 5 4 2 4 4 4 5 4 4 4 4 1 3 1 2 2 4 2 4 10 6 5 8 12 11 9 8 7 8 11 18 21 19 19 21 20 17 15 13 13 13 12 12 16 23 26 23 21 20 21 23 23 21 19 17 18 18 20 23 26 27 28 30 32 32 32 33 34 35 35 36 36 35 34 32 31 32 33 34 33
2 3 2 3 4 5 5 4 1 0 2 3 3 3 4 4 5 4 3 3 1 1 2 4 1 9 5 5 7 9 9 8 6 6 9 15 21 22 20 20 21 20 18 18 19 20 21 23 24 30 35 34 30 26 22 20 22 24 25 23 21 20 18 17 20 24 27 28 30 30 30 31 33 34 35 36 37 37 36 34 34 34 35 35 35 35
2 2 1 4 4 2 4 3 2 2 2 1 3 2 4 3 3 4 5 3 2 3 3 3 2 10 5 4 5 7 9 12 12 11 12 17 24 24 21 21 22 23 24 26 29 30 31 33 35 37 39 38 35 31 25 22 21 22 26 26 25 22 19 17 18 22 26 28 29 30 30 31 32 34 35 37 37 37 37 36 36 36 37 37 37 37
3 1 2 1 5 5 5 5 4 3 1 4 3 2 5 4 5 3 2 2 1 6 8 5 5 12 7 2 5 7 7 9 14 17 15 17 25 27 25 25 25 26 27 29 31 32 33 35 37 38 38 37 36 33 28 25 22 21 23 26 27 24 20 18 19 21 24 27 29 31 32 32 33 34 36 37 37 38 37 37 37 38 38 39 38 38
4 2 3 4 3 4 4 3 3 3 2 3 2 3 6 6 7 4 2 2 3 6 7 6 8 12 9 11 14 12 8 9 14 20 20 18 24 27 26 26 25 25 26 29 31 33 35 36 37 37 37 35 34 32 29 27 25 21 21 25 27 26 22 20 19 21 24 27 29 31 33 34 34 35 36 36 36 36 36 37 37 38 39 39 39 39
3 1 4 7 7 8 7 6 5 3 3 3 3 4 6 7 7 5 4 4 5 3 3 6 12 15 14 16 21 19 15 15 15 18 20 18 19 22 23 23 24 26 29 32 34 36 37 36 35 33 31 30 28 27 27 27 27 25 23 23 25 25 24 22 21 22 24 27 29 30 32 33 34 34 34 34 34 34 34 35 36 37 38 38 39 40
3 2 6 8 10 12 8 5 5 4 4 6 6 5 7 8 8 8 8 8 5 2 7 12 15 16 17 19 23 20 19 19 16 16 22 23 21 21 22 23 27 31 35 37 37 37 35 33 31 29 26 24 24 23 22 23 24 26 27 26 24 24 25 25 23 24 25 27 29 29 29 29 29 30 31 32 33 33 34 34 35 36 36 37 39 40
4 4 5 5 9 13 10 6 5 5 5 5 7 7 7 10 13 15 16 11 6 7 15 14 12 13 17 21 22 19 17 18 18 23 28 30 29 26 24 26 32 37 39 39 36 33 32 31 29 26 23 20 20 20 19 19 19 20 23 26 26 26 26 25 25 25 24 26 27 28 28 27 26 27 28 29 31 32 33 33 34 35 35 37 38 39
3 3 2 2 5 11 11 7 6 6 6 5 7 9 9 13 17 16 14 14 15 17 20 17 15 16 19 21 20 22 25 23 24 31 33 32 33 30 27 29 35 38 38 36 35 33 32 30 26 22 20 18 17 17 17 18 18 17 19 21 23 26 26 25 26 26 25 25 25 25 26 26 26 26 27 28 29 30 31 31 32 33 34 35 36 37
2 3 1 4 2 10 7 2 0 3 5 6 7 9 13 14 11 11 14 15 15 17 20 19 17 17 21 22 20 26 32 27 23 27 29 30 32 30 28 30 33 35 35 35 35 34 30 25 20 18 18 18 17 16 15 16 17 19 20 19 19 21 24 25 26 26 26 25 23 23 25 25 25 24 25 25 26 27 27 28 29 30 32 33 34 35
3 3 2 5 1 8 4 5 4 2 1 2 7 14 18 14 9 12 13 11 12 18 19 14 11 14 20 21 16 16 20 20 18 19 22 27 30 27 26 28 31 33 35 36 34 29 23 17 14 15 16 16 17 17 16 17 17 19 20 19 18 18 21 23 24 24 25 24 22 21 22 22 21 21 21 22 22 23 24 25 26 27 29 31 31 33
5 3 1 2 2 7 6 3 2 3 3 4 8 16 20 16 14 14 9 8 16 18 12 10 12 16 17 15 11 10 13 13 13 14 18 24 27 26 25 27 32 35 36 34 29 21 15 12 12 13 13 14 16 17 18 19 20 20 19 18 18 19 21 22 22 22 23 21 19 18 17 17 17 17 17 18 18 19 20 22 23 24 25 27 28 30
5 5 3 4 3 6 8 4 3 6 10 9 7 12 18 18 19 18 13 15 19 15 11 12 14 15 15 13 12 15 14 8 8 15 21 25 28 30 31 33 36 37 33 27 21 15 11 11 11 11 12 13 14 17 19 21 22 22 21 20 20 20 21 22 21 21 21 18 16 15 14 14 14 14 15 16 17 17 19 20 21 22 23 24 26 28
6 5 3 3 2 4 4 6 6 12 10 5 2 4 10 12 12 12 12 16 18 14 15 17 18 20 20 18 18 21 19 14 16 23 31 36 37 35 37 39 35 30 25 19 15 12 11 11 12 12 13 13 15 17 19 21 23 22 22 23 22 21 21 21 21 21 20 17 15 14 13 13 14 14 15 16 17 18 19 20 22 23 24 25 27 27
8 6 2 3 3 1 2 3 7 10 6 6 6 1 2 3 2 2 10 16 17 17 17 19 22 23 20 19 25 28 22 16 19 29 38 42 37 31 32 29 22 18 17 15 13 13 12 12 14 15 15 15 16 19 21 23 24 24 23 23 23 22 21 21 22 22 21 19 17 16 16 15 15 15 16 18 19 20 21 22 23 24 25 26 27 28
7 6 2 3 4 2 2 5 6 9 12 12 10 5 6 7 8 7 9 12 13 17 19 19 19 19 15 19 27 26 14 7 10 23 31 29 20 15 15 13 10 11 12 13 14 14 14 15 17 18 19 18 17 19 21 23 25 26 25 23 23 23 22 22 23 23 22 21 19 19 18 18 18 18 19 20 21 22 22 23 24 25 25 27 28 28
3 4 5 5 4 3 3 5 5 8 13 9 9 12 15 16 12 9 6 7 6 13 16 13 13 15 14 16 18 9 3 2 4 11 19 18 13 10 10 10 11 12 12 13 14 15 16 18 20 22 23 21 18 18 20 22 24 28 28 25 23 23 23 24 24 24 25 24 22 21 20 19 19 20 20 22 23 23 23 24 24 25 25 27 28 29
2 2 4 4 4 3 5 5 6 10 10 4 9 10 10 13 10 8 1 8 6 11 13 9 10 14 13 13 9 6 5 2 4 9 16 17 13 10 11 13 15 16 16 17 17 17 18 19 21 23 25 25 22 20 21 22 24 27 29 27 24 24 25 26 26 27 28 27 24 22 21 20 21 22 22 23 24 24 25 25 25 25 26 27 29 30
3 2 2 6 8 5 5 6 6 8 7 4 6 6 5 13 12 11 3 11 7 13 19 14 11 15 15 14 8 7 6 8 9 13 15 10 8 10 12 15 17 18 20 21 22 22 21 20 21 23 25 26 25 23 23 24 24 26 28 28 26 26 26 27 28 28 28 27 25 24 23 23 24 24 24 25 25 26 27 26 26 27 28 29 30 30
1 1 3 6 7 6 6 7 9 9 6 5 4 7 14 13 9 6 10 9 5 11 20 18 17 21 22 16 11 9 14 21 22 21 16 11 13 15 15 17 20 21 22 22 23 23 22 21 21 23 24 25 25 24 24 24 25 25 26 27 27 27 27 27 27 27 27 27 26 25 25 25 25 25 26 27 27 28 29 29 29 29 30 30 31 31
3 1 2 3 3 3 5 6 10 11 7 13 11 14 18 10 2 8 9 4 9 14 18 19 21 23 24 21 19 20 26 30 31 29 23 20 20 19 18 21 23 23 23 23 23 24 23 21 20 21 23 24 24 25 25 25 25 25 25 26 27 27 27 27 26 26 26 26 26 26 26 26 26 26 27 28 29 30 30 30 30 30 30 30 31 32
8 6 3 4 5 3 2 6 9 10 9 22 18 8 8 7 9 12 9 6 13 19 19 21 24 25 25 25 26 27 29 31 32 31 27 25 23 22 24 25 25 25 25 24 25 25 24 23 22 23 24 24 24 25 25 25 25 24 24 25 26 27 28 27 27 26 26 26 26 26 26 26 26 27 28 28 29 31 31 31 30 30 30 30 31 32
8 7 4 4 5 6 5 10 10 6 7 24 21 7 13 24 24 18 13 12 16 21 22 25 27 28 28 28 28 28 29 31 33 32 29 27 27 27 27 27 26 26 26 26 26 26 25 25 24 25 25 25 25 25 24 24 23 23 24 25 25 26 27 27 26 26 26 26 26 26 26 26 27 27 28 29 30 31 30 30 29 29 28 29 30 31
11 12 9 7 7 8 9 11 8 1 7 25 27 17 24 38 39 30 21 19 20 22 24 26 28 29 29 28 28 29 30 31 32 30 28 27 28 27 27 28 29 29 29 29 28 27 26 26 25 24 24 24 24 24 23 23 22 22 23 24 24 24 25 25 25 25 25 25 26 26 27 27 27 28 29 29 29 29 29 28 28 27 28 28 29 30
9 12 9 7 7 9 13 12 5 1 7 24 33 29 25 30 35 34 30 29 28 25 23 22 24 25 23 23 24 27 29 30 29 28 27 27 28 28 28 29 30 30 30 29 28 27 27 26 25 24 24 24 24 23 23 22 22 23 23 23 23 23 23 24 25 25 26 26 26 27 27 27 27 28 28 27 28 27 27 27 27 27 28 28 28 29
6 9 8 9 9 9 12 12 9 11 16 22 31 35 31 29 31 31 32 34 34 30 26 24 25 25 23 23 24 27 30 30 28 28 30 31 31 31 30 29 29 29 28 27 26 26 25 24 24 24 24 24 24 24 23 23 23 23 23 23 23 23 24 24 25 25 26 26 26 26 26 26 26 26 25 26 26 26 26 27 27 27 27 27 28 28
6 9 10 14 13 11 13 12 7 11 19 21 24 30 32 33 35 34 35 36 35 33 31 30 30 31 30 30 31 31 33 35 33 32 33 33 32 31 30 28 27 26 25 25 24 24 23 23 24 23 23 23 23 23 23 23 22 22 22 22 22 22 23 23 24 24 24 24 24 24 24 24 25 24 25 25 25 25 25 25 25 26 25 26 26 27
7 9 8 6 8 12 15 11 6 10 19 23 26 29 31 34 36 36 37 39 37 37 38 37 37 37 36 37 37 34 35 38 36 33 32 31 30 29 27 26 25 24 23 23 23 23 22 22 21 21 21 21 21 21 21 21 21 21 21 21 22 21 21 22 22 22 23 23 23 23 24 24 25 24 24 25 25 25 25 25 24 24 24 25 26 26
8 10 8 3 7 13 10 7 9 9 13 18 23 25 29 34 36 35 37 38 38 39 39 39 39 38 36 35 35 33 33 35 34 30 28 28 27 25 25 24 23 23 22 22 22 21 20 19 19 18 18 18 18 18 18 19 19 20 20 21 21 20 20 21 21 21 22 22 23 23 23 24 24 24 24 24 23 24 24 25 25 24 24 24 24 24
11 14 12 8 12 13 7 8 17 15 11 13 14 14 17 22 25 26 28 29 31 32 32 31 32 32 30 28 28 29 29 28 28 26 25 24 24 23 23 22 22 21 21 20 19 18 17 16 16 15 15 15 15 16 17 17 18 18 19 19 19 19 20 20 20 20 21 21 22 22 22 22 22 22 22 22 22 22 23 23 23 23 22 22 21 21
Wind_Direction
109 150 182 206 214 217 222 197 179 172 126 111 140 148 253 261 282 267 266 289 331 268 264 239 253 274 280 280 273 277 282 277 271 275 275 274 276 279 284 289 292 296 301 307 301 289 279 269 259 250 241 232 230 234 238 236 231 227 224 224 225 227 226 222 220 218 218 221 224 228 231 233 236 238 240 242 243 242 240 239 239 239 238 235 235 237
100 188 229 230 210 199 214 167 134 138 101 75 174 275 285 248 270 272 275 303 325 225 267 344 316 286 282 284 278 273 274 266 265 270 271 272 276 279 283 288 294 299 303 307 305 297 285 271 259 248 238 230 227 229 234 236 232 228 224 224 225 226 225 222 221 221 222 225 229 234 237 239 241 241 243 244 245 245 243 242 240 240 238 236 234 234
26 228 250 242 168 110 71 99 117 133 107 88 150 244 291 259 280 295 319 323 337 204 275 360 345 291 284 285 280 272 256 257 263 262 265 271 275 278 283 289 295 300 303 309 311 304 291 274 260 249 238 229 226 227 232 235 232 228 224 223 223 224 224 222 222 222 224 228 231 236 238 240 242 244 245 246 246 244 243 241 239 238 237 235 234 232
250 254 259 149 129 105 72 67 99 104 100 124 147 164 269 275 316 290 306 320 309 216 279 322 314 283 288 292 284 277 253 252 263 263 266 269 271 278 283 285 288 297 307 313 313 310 299 284 268 253 242 232 226 225 228 230 229 227 225 223 222 222 223 222 223 223 224 227 230 233 235 235 237 240 242 242 243 241 240 240 237 236 235 234 234 232
224 234 133 107 106 126 123 101 119 133 280 284 192 192 237 257 232 241 285 317 317 341 334 328 314 285 301 315 302 295 266 251 265 275 280 281 279 281 283 285 291 303 313 313 309 311 305 296 283 259 244 233 227 225 225 227 228 227 226 224 222 222 223 222 222 222 223 224 227 229 230 230 231 232 234 235 236 236 237 238 237 235 234 233 234 232
256 200 134 117 82 111 136 198 202 170 249 306 239 215 227 238 252 275 313 339 3 354 344 19 356 293 307 317 286 292 308 288 288 307 297 296 291 273 290 326 334 330 326 319 309 305 307 305 293 269 247 233 227 225 225 226 227 227 225 225 224 223 223 222 222 221 222 225 227 229 229 229 230 231 234 238 240 240 241 242 240 238 235 234 234 233
266 84 117 139 135 112 105 259 238 166 138 303 263 213 203 174 164 322 348 12 14 294 296 66 85 268 303 295 267 286 312 295 299 311 291 282 258 244 340 354 1 349 335 325 314 304 306 307 297 282 258 240 229 223 224 223 224 225 225 226 226 225 224 222 222 221 222 225 227 230 233 235 236 238 243 248 250 249 248 247 243 240 237 235 235 235
122 84 50 90 104 103 110 266 238 146 126 247 244 144 118 99 108 137 55 53 248 277 312 38 128 249 295 270 260 297 311 293 299 304 288 259 225 249 352 355 0 347 333 328 320 305 305 307 299 285 259 238 227 222 223 221 222 225 227 228 227 227 226 225 223 222 223 226 227 230 233 236 239 242 247 251 253 252 250 248 244 241 238 235 234 234
127 154 193 121 91 117 200 234 223 143 123 244 222 138 120 107 122 122 82 65 333 348 324 331 100 236 275 272 286 324 299 291 299 296 288 268 241 270 333 338 345 341 333 327 317 302 301 307 300 276 244 226 222 222 223 222 223 227 228 229 228 227 227 227 225 223 225 227 229 232 234 237 240 242 245 247 249 249 249 249 247 243 239 235 233 232
165 199 202 143 135 211 211 224 201 147 134 206 165 107 72 75 78 73 78 78 33 19 274 289 45 249 268 281 297 334 248 273 288 287 275 283 282 293 316 320 320 325 326 320 312 302 298 306 301 269 240 221 217 217 219 221 223 226 229 230 230 228 228 228 227 225 226 228 230 232 235 238 240 241 243 245 246 247 246 246 245 243 240 236 234 232
4 69 227 157 170 177 152 151 126 121 123 135 117 47 29 31 37 44 53 72 55 316 262 277 309 165 280 282 258 198 202 229 285 308 290 295 302 303 311 314 312 320 323 316 311 303 297 304 304 276 244 223 216 213 216 220 224 227 230 232 232 230 229 229 228 227 227 229 231 234 236 240 241 242 244 246 247 247 245 244 243 242 240 237 235 233
7 123 233 200 165 135 113 80 29 68 97 102 86 47 27 349 9 26 358 43 79 257 265 295 292 181 244 266 250 249 262 235 227 297 294 300 304 305 311 311 312 320 320 310 309 303 296 301 303 287 245 227 221 218 218 221 226 230 232 234 233 232 231 230 229 229 229 231 233 236 238 241 243 244 245 247 249 249 247 246 245 243 241 238 235 233
247 213 250 96 162 159 114 86 35 15 37 75 82 67 52 342 356 359 318 2 197 248 273 323 319 209 247 262 264 271 277 266 239 253 269 276 287 297 304 306 311 318 313 305 307 298 293 296 293 277 237 230 228 225 225 226 229 233 234 236 236 235 234 233 231 230 231 233 235 237 239 241 244 246 247 249 250 250 249 246 245 244 243 242 239 237
311 299 12 79 244 239 144 131 145 303 72 113 128 110 114 108 53 301 281 284 269 264 278 306 321 265 275 274 255 251 260 265 260 264 268 269 276 286 294 301 310 315 308 304 301 286 282 280 269 251 220 223 229 229 231 230 230 233 235 237 239 239 238 236 234 234 234 236 237 238 240 242 245 247 248 249 250 249 249 246 244 244 244 245 244 243
257 304 38 141 283 345 149 169 166 149 128 161 155 122 137 151 151 232 240 232 267 293 294 302 312 212 234 276 266 250 259 268 267 268 270 272 275 280 289 301 310 313 312 303 287 270 264 261 248 223 183 202 232 235 237 235 232 233 233 236 238 239 240 240 238 237 238 239 239 239 241 242 245 247 249 249 250 250 249 247 245 243 244 244 244 243
201 265 277 282 274 122 178 212 151 112 113 193 135 108 162 183 149 175 196 185 208 322 299 265 242 223 226 282 290 296 300 290 283 273 269 279 288 289 295 308 318 317 312 295 274 259 253 249 235 217 173 296 279 260 257 252 244 240 237 236 238 239 241 243 243 242 242 243 242 241 241 242 244 247 248 248 248 248 248 248 246 244 244 244 244 243
171 275 302 326 293 57 112 222 88 79 161 160 134 170 223 182 118 113 223 357 65 326 279 246 256 286 307 288 294 331 332 314 316 316 306 309 315 313 310 324 339 330 312 294 275 260 253 250 243 235 221 253 292 292 283 273 263 255 247 241 241 241 241 242 243 244 245 245 245 244 242 243 244 246 248 249 249 249 249 248 247 246 245 245 245 246
160 272 308 52 259 343 10 223 27 27 120 118 166 220 219 131 84 91 251 346 40 232 272 282 252 287 319 289 310 335 317 303 306 314 321 318 321 323 324 334 343 339 329 306 286 268 257 254 253 250 247 253 267 280 285 278 268 262 256 250 244 242 243 243 244 245 247 248 248 247 245 244 245 246 249 251 251 250 250 249 248 247 246 246 247 249
159 269 306 20 225 310 2 51 24 2 50 114 181 216 125 140 120 77 153 234 258 256 283 296 282 265 227 239 290 296 284 285 293 303 315 312 312 314 319 331 338 337 336 318 296 279 263 256 255 256 257 257 260 270 277 274 268 263 259 256 250 246 245 245 246 247 247 248 249 250 249 247 247 248 250 251 252 251 250 250 249 249 249 249 250 252
112 176 285 302 273 302 19 150 197 231 38 63 347 343 35 160 172 149 142 168 199 241 279 304 320 258 222 212 235 261 265 267 275 288 296 291 290 296 304 320 327 325 324 321 308 292 278 265 259 257 258 263 271 281 283 278 274 268 259 257 257 253 248 244 245 245 245 247 248 250 250 249 248 249 250 251 252 252 251 251 251 251 251 251 252 252
91 177 257 299 312 253 206 216 195 182 162 135 186 271 234 167 129 176 229 142 146 170 217 292 308 271 244 191 209 245 258 252 248 261 271 276 285 291 298 311 317 314 305 299 299 295 287 270 257 262 276 285 289 289 285 279 276 269 258 255 258 257 254 250 247 246 246 246 246 247 247 248 248 249 250 251 251 251 252 251 251 252 251 251 251 251
145 175 197 232 281 220 231 256 216 184 171 161 183 197 187 158 122 140 269 280 105 159 189 162 287 275 251 171 206 237 252 252 238 238 258 271 278 286 298 307 309 306 299 296 295 291 284 272 267 278 289 296 297 295 288 277 271 268 262 256 253 254 257 258 256 250 247 246 246 246 246 246 247 248 249 250 250 251 251 251 251 251 250 250 250 251
142 118 141 233 226 215 252 293 9 186 115 131 208 207 166 156 138 146 212 246 163 172 183 114 242 270 248 174 214 238 252 271 266 238 257 275 277 282 292 297 297 297 299 302 300 294 288 284 284 288 293 299 301 301 295 282 272 267 264 258 251 250 254 262 263 256 250 247 246 247 247 246 246 247 248 249 250 251 251 251 252 252 252 252 253 254
136 121 153 282 294 312 314 338 14 14 64 158 245 189 162 177 148 149 176 181 153 194 188 113 240 269 272 167 213 264 289 300 297 268 256 271 279 282 285 289 291 291 292 295 295 294 291 289 289 290 292 296 298 299 293 287 281 269 262 258 253 250 252 259 264 261 254 249 247 246 246 246 246 246 247 247 248 249 250 251 252 252 253 254 255 256
192 187 117 301 321 335 340 351 344 333 302 221 236 187 192 164 107 114 151 113 260 224 191 157 238 260 283 302 253 266 281 288 286 275 262 266 279 284 287 289 290 289 289 290 291 292 291 290 290 291 292 293 295 295 289 285 286 275 260 256 253 250 251 256 261 263 259 253 248 245 243 243 244 244 245 246 248 249 250 251 252 253 255 256 257 258
186 192 137 153 227 256 267 276 253 248 206 214 226 195 201 173 143 153 129 126 245 232 180 177 244 257 286 304 287 274 262 261 272 275 269 262 271 282 287 289 291 291 292 292 293 293 293 293 294 295 297 298 296 295 288 283 284 282 267 256 252 251 252 256 260 262 261 255 251 248 244 243 243 244 246 247 249 251 253 254 255 256 257 259 260 261
120 212 200 186 206 223 226 222 204 157 131 186 212 193 191 192 173 141 117 180 205 202 183 214 248 264 279 283 282 284 284 282 280 282 281 273 271 279 285 289 292 293 293 294 294 295 296 298 301 303 305 304 301 298 292 285 281 281 275 265 259 256 256 258 263 265 262 257 253 251 250 248 248 248 250 252 254 256 257 258 259 259 260 261 262 262
97 247 226 205 225 239 241 223 180 163 195 199 195 193 188 189 175 167 199 209 153 130 253 235 234 254 267 267 269 276 280 282 282 281 285 288 287 287 290 293 294 294 294 295 296 298 300 304 308 311 312 309 305 301 296 292 286 280 277 272 266 262 260 261 265 269 268 261 257 256 256 255 255 255 255 256 257 257 257 258 258 259 260 260 261 261
128 237 228 198 235 253 257 243 193 197 233 205 197 209 188 180 190 200 215 216 172 213 249 247 235 245 258 260 263 266 265 269 275 278 283 288 290 291 293 295 295 295 296 297 300 303 305 309 312 314 314 311 307 302 295 290 289 284 280 275 268 262 261 262 266 270 271 266 262 261 261 259 258 257 255 254 254 253 254 255 255 257 258 258 259 260
155 239 252 153 259 269 267 253 211 210 240 234 225 229 210 203 206 207 219 226 221 233 251 261 263 261 260 260 262 265 264 267 274 279 281 284 287 289 292 292 291 293 296 298 302 306 309 311 313 313 314 316 315 310 297 284 280 281 281 281 274 263 257 258 264 269 272 270 266 263 261 259 256 255 253 252 252 253 253 254 255 256 257 258 259 261
181 246 358 79 309 282 283 318 153 210 225 234 250 250 236 228 219 215 228 231 231 245 253 257 266 269 265 262 260 264 271 276 275 274 276 279 282 285 285 284 285 289 295 299 303 308 311 312 314 316 321 328 330 324 309 292 281 273 273 280 281 268 257 255 260 268 273 275 271 263 257 256 255 254 254 254 254 255 255 256 257 258 259 260 261 262
169 247 8 67 313 279 310 25 27 47 102 236 264 253 241 233 218 216 222 217 218 236 246 253 261 259 258 263 263 260 266 270 268 269 274 277 277 277 275 277 283 287 293 299 304 309 311 313 318 324 328 333 335 332 324 312 297 280 271 275 281 269 254 252 258 267 274 274 270 262 256 256 257 256 256 257 258 258 259 260 261 262 263 263 264 265
156 163 99 117 213 268 295 359 66 45 359 264 237 233 231 228 224 228 233 219 217 223 230 236 239 244 256 272 280 265 251 252 262 270 271 273 277 278 276 277 284 288 293 299 304 305 308 313 320 325 326 327 328 327 324 319 313 300 282 272 272 263 250 248 255 263 268 267 262 257 256 257 258 260 263 264 265 266 267 267 268 269 270 269 269 268
161 146 171 173 172 261 282 330 356 291 277 260 219 208 218 222 224 227 231 230 226 220 221 240 255 262 268 270 265 264 262 265 281 279 278 279 280 281 282 282 285 290 295 299 301 299 304 312 315 314 316 319 319 317 315 313 310 305 290 274 268 260 250 247 252 258 259 254 250 251 254 259 263 269 272 273 273 273 273 274 276 276 276 275 273 272
161 152 180 174 154 248 306 14 310 268 259 259 279 208 214 223 228 236 246 246 242 237 235 248 260 259 259 262 262 266 276 293 299 291 285 282 277 275 279 284 288 292 297 300 300 303 308 310 310 309 308 311 312 313 314 311 307 301 289 277 267 257 250 250 254 254 247 239 240 247 253 258 262 264 267 268 268 269 271 273 274 275 276 276 276 276
159 160 161 159 170 221 72 119 241 267 282 263 269 276 151 158 141 264 273 257 240 237 238 240 246 250 256 264 265 267 279 297 298 290 286 284 281 275 275 282 292 300 305 309 308 310 314 310 306 308 308 311 315 318 318 315 310 303 292 279 267 255 250 254 254 247 236 232 238 245 248 250 252 254 257 259 260 261 264 266 268 270 273 274 275 276
151 156 162 206 207 187 186 218 251 309 306 269 242 201 176 180 164 179 249 252 218 221 233 232 240 253 254 256 262 266 279 311 301 291 292 293 292 288 285 292 305 309 314 319 312 309 313 310 306 306 304 306 314 319 318 315 312 307 299 285 271 257 253 257 255 244 236 236 240 243 246 249 252 254 255 255 256 256 258 262 265 268 271 273 274 274
152 171 170 205 227 152 181 267 284 285 280 252 203 200 202 198 180 165 227 258 207 217 230 220 229 245 246 256 264 256 241 307 287 280 294 307 315 323 330 328 320 312 311 313 310 307 306 304 304 304 300 298 303 309 312 313 312 309 302 289 272 260 259 261 256 245 240 241 241 244 249 252 256 259 258 256 256 257 259 263 266 269 270 272 273 273
77 34 123 187 247 142 166 240 240 247 263 209 193 227 211 185 155 96 321 259 232 232 233 206 217 239 241 249 244 153 137 264 252 256 282 301 310 313 321 324 321 315 305 302 302 302 300 298 302 306 302 295 293 299 306 311 311 309 303 290 271 262 262 263 257 250 246 246 246 249 252 255 258 261 261 259 259 259 262 264 266 267 269 270 271 273
77 32 117 211 229 176 174 233 242 248 257 204 223 258 156 150 125 88 264 254 231 232 235 218 220 242 242 236 216 147 167 222 246 269 279 282 276 280 299 312 313 307 299 296 293 292 296 299 302 306 303 294 289 293 301 305 306 306 302 292 277 269 268 268 264 258 254 252 252 251 251 253 256 260 261 261 260 261 262 264 265 266 267 269 271 272
118 182 191 218 219 189 191 236 263 258 221 179 221 186 150 138 112 132 228 240 169 209 232 225 224 241 244 230 197 191 231 246 259 271 273 263 265 276 290 302 304 302 300 297 293 292 296 300 300 299 298 292 286 288 294 297 297 297 296 291 284 278 276 273 268 261 256 254 252 250 250 252 256 260 261 261 262 263 264 266 266 266 267 269 271 272
155 166 234 213 194 182 192 225 272 279 194 155 161 165 155 142 162 207 221 206 167 203 231 231 231 244 249 238 225 235 256 266 269 271 272 272 276 284 294 301 303 302 301 301 300 299 301 301 299 294 291 289 286 287 290 290 287 285 284 283 282 279 275 270 263 257 254 253 252 252 253 255 259 262 263 264 265 266 266 267 266 266 268 269 271 273
168 165 197 190 171 167 198 216 251 274 191 158 152 151 163 188 225 223 222 209 203 217 231 234 239 249 252 249 249 256 269 278 278 277 281 285 292 300 303 304 304 302 302 302 301 302 303 301 299 295 292 290 288 288 288 285 280 276 273 273 274 273 269 263 258 255 254 254 254 256 258 261 264 267 267 268 269 268 269 269 269 269 271 272 273 274
181 168 179 203 180 165 192 212 222 258 183 162 155 157 201 209 221 227 227 230 225 226 229 232 241 251 251 252 261 268 274 278 278 280 285 291 296 300 300 301 303 303 304 304 302 302 302 300 298 297 295 291 289 287 284 280 276 272 269 268 268 265 262 259 257 257 258 260 262 264 267 269 270 270 271 271 271 271 271 271 272 273 274 275 276 276
198 188 192 213 205 190 215 226 213 219 176 179 185 199 204 211 223 229 231 241 241 237 237 239 245 253 253 254 263 269 271 273 275 277 282 287 290 293 294 296 297 298 299 300 300 300 299 298 298 297 294 291 288 285 281 277 274 271 269 268 266 264 262 262 262 264 266 268 270 272 273 274 274 274 274 273 273 273 274 274 275 276 276 276 276 276
215 206 208 226 221 222 249 254 227 251 206 194 205 220 217 218 229 231 234 244 248 248 250 249 252 258 259 259 264 267 269 271 275 277 281 286 288 290 291 292 292 293 293 293 294 294 294 295 295 293 290 288 285 282 279 276 273 271 270 269 269 268 268 269 271 273 274 275 276 276 277 277 277 277 276 276 277 278 278 279 279 279 279 278 277 277
239 202 210 239 225 217 251 254 220 231 237 214 215 229 233 234 238 237 240 247 252 254 256 257 261 265 266 266 268 269 272 276 279 281 285 288 289 290 290 290 289 289 288 288 288 288 288 288 287 285 283 281 279 278 276 274 273 272 271 272 272 272 273 274 275 276 278 279 279 280 280 280 280 280 281 281 282 283 282 282 282 281 281 280 279 278
218 172 199 237 233 223 247 251 220 238 253 243 232 236 241 243 244 245 249 253 257 260 261 261 265 267 268 271 273 274 278 281 282 285 287 288 289 289 289 288 288 287 286 286 285 284 283 282 280 277 275 273 273 273 272 271 272 272 273 275 276 276 278 279 280 281 282 283 284 284 284 285 286 286 286 286 285 284 283 283 282 282 281 280 279 279
171 168 192 229 240 244 253 258 270 283 275 263 250 247 252 256 255 254 257 259 261 264 266 266 268 270 271 274 275 276 278 280 282 284 285 284 285 285 284 284 285 284 283 283 282 282 281 278 275 272 270 269 269 269 270 271 273 275 277 279 280 281 283 283 284 286 286 287 288 289 289 289 289 289 288 288 287 285 284 283 282 281 281 280 280 280
161 211 225 210 243 254 249 204 204 243 265 261 256 256 260 265 265 263 263 264 264 267 269 270 271 272 272 273 274 274 275 277 279 280 280 280 281 281 281 281 281 280 280 280 280 279 277 274 272 270 269 267 267 269 271 273 276 279 280 281 282 284 285 286 287 288 289 289 290 290 290 291 291 291 291 290 289 288 287 286 284 283 281 280 280 280
197 224 233 227 242 263 278 206 206 221 248 262 267 269 264 265 267 265 265 267 268 268 270 271 272 274 274 272 272 272 273 274 276 277 278 280 279 279 279 279 278 277 277 276 275 275 274 272 272 270 269 270 272 273 275 277 279 281 283 284 286 287 288 289 290 291 292 293 293 293 294 293 293 293 293 293 292 291 290 288 287 286 284 283 281 280